Weather in Alasehir

Turkey     38°21′16″N   28°31′02″E
temp.,
°C
wind,
m/s
gust,
m/s
humid.,
%
clouds,
%
prec.,
mm/h
press.,
hPa
HPBL,
m
12 may, wed
wed1200:00+12n11560 0.0 101111
03:00+11ne11560 0.0 101010
06:00+10ne00560 0.0 101010
09:00+16ene11443 0.0 1010266
12:00+23nw13300 0.0 10081303
15:00+26w34210 0.0 10072076
18:00+24wnw34224 0.0 10071429
21:00+17wsw3336100 0.0 100924
13 may, thu
thu1300:00+15sw2237100 0.0 100918
03:00+14sw22370 0.0 100917
06:00+13sw32430 0.0 100918
09:00+20sw33305 0.0 1010459
12:00+23sw472726 0.0 10091440
15:00+25sw79241 0.0 10091854
18:00+23wsw48290 0.0 10091444
21:00+16wsw33530 0.0 101126
14 may, fri
fri1400:00+14sw33610 0.0 101225
03:00+12sw33666 0.0 101225
06:00+12sw32600 0.0 101221
09:00+19sw23350 0.0 1013454
12:00+23sw35280 0.0 10131221
15:00+25sw46290 0.0 10121756
18:00+23wsw55360 0.0 10121103
21:00+16sw33520 0.0 101426
15 may, sat
sat1500:00+14wsw22610 0.0 101513
03:00+13wnw11645 0.0 101410
06:00+12sse11655 0.0 101410
09:00+18sse114330 0.0 1013440
12:00+24wsw23222 0.0 10111431
15:00+26w45211 0.0 10101822
18:00+24wsw442642 0.0 1009876
21:00+18sw3335100 0.0 100934
16 may, sun
sun1600:00+16sw3245100 0.0 100929
03:00+14sw3351100 0.0 100731
06:00+13sw3356100 0.0 100632
09:00+19sw393927 0.0 10051215
12:00+21sw6832100 0.0 10051958
15:00+22wsw4632100 0.0 10032975
18:00+19wnw554268 0.0 10031744
21:00+12wsw22793 1.6 100622